User: anonymous   Login
Location: Unspecified
(0.0000°N, 0.0000°E)
Time: 17:02:20
(UTC+00:00)
Language:

Kosmos-1506 - Orbit

View from above orbital plane
View from above orbital plane
View from above satellite
View from above satellite

Ground track
Ground track

The orbit data is extracted from the following two-line orbital elements,

1 14450U 83108A   18174.86104043  .00000024  00000-0  94932-5 0  9999
2 14450  82.9314 279.8573 0041895 229.0075 279.7315 13.76235477556900
Epoch (UTC): 23 June 2018 20:39:53
Eccentricity: 0.0041895
inclination: 82.9314°
perigee height: 946 km
apogee height: 1008 km
right ascension of ascending node: 279.8573°
argument of perigee: 229.0075°
revolutions per day: 13.76235477
mean anomaly at epoch: 279.7315°
orbit number at epoch: 55690

The dashed part of the orbit path shows where the satellite is in the earth's shadow,  

DLR